| time (UTC) | temp F | wind direction | speed knots | gust knots | rain 1hr in | rain 24hr in | rain mn in | humidity % | barometer mb |
| 20260510191607 | 54 | 2 | 6.1 | 7.8 | 0.00 | 0.00 | 0.00 | 81 | 1020.9 |
| 20260510191054 | 54 | 316 | 5.2 | 9.6 | 0.00 | 0.00 | 0.00 | 81 | 1020.9 |
| 20260510190541 | 54 | 312 | 5.2 | 9.6 | 0.00 | 0.00 | 0.00 | 81 | 1020.9 |
| 20260510185515 | 54 | 294 | 6.1 | 8.7 | 0.00 | 0.00 | 0.00 | 81 | 1020.7 |
| 20260510185002 | 54 | 305 | 6.1 | 8.7 | 0.00 | 0.00 | 0.00 | 81 | 1020.6 |
| 20260510184449 | 54 | 310 | 5.2 | 7.8 | 0.00 | 0.00 | 0.00 | 81 | 1020.7 |
| 20260510183936 | 54 | 334 | 4.3 | 7.0 | 0.00 | 0.00 | 0.00 | 82 | 1020.7 |
| 20260510183423 | 54 | 340 | 4.3 | 7.0 | 0.00 | 0.00 | 0.00 | 82 | 1020.8 |
| 20260510182910 | 54 | 302 | 0.0 | 4.3 | 0.00 | 0.00 | 0.00 | 82 | 1020.8 |
| 20260510182357 | 54 | 327 | 0.0 | 4.3 | 0.00 | 0.00 | 0.00 | 82 | 1020.8 |
| 20260510181331 | 53 | 0 | 0.0 | 6.1 | 0.00 | 0.00 | 0.00 | 82 | 1020.9 |
| 20260510180818 | 53 | 0 | 0.9 | 6.1 | 0.00 | 0.00 | 0.00 | 82 | 1020.8 |
| 20260510180305 | 54 | 15 | 0.9 | 6.1 | 0.00 | 0.00 | 0.00 | 82 | 1020.8 |
| 20260510175752 | 54 | 333 | 2.6 | 8.7 | 0.00 | 0.00 | 0.00 | 82 | 1020.8 |
| 20260510175239 | 54 | 348 | 0.0 | 8.7 | 0.00 | 0.00 | 0.00 | 83 | 1020.8 |
| 20260510174726 | 54 | 322 | 3.5 | 8.7 | 0.00 | 0.00 | 0.00 | 82 | 1020.8 |
| 20260510174213 | 54 | 315 | 6.1 | 7.8 | 0.00 | 0.00 | 0.00 | 82 | 1020.9 |
| 20260510173700 | 54 | 313 | 2.6 | 7.0 | 0.00 | 0.00 | 0.00 | 82 | 1020.7 |
| 20260510173147 | 54 | 309 | 2.6 | 7.0 | 0.00 | 0.00 | 0.00 | 82 | 1020.8 |
| 20260510172634 | 54 | 44 | 0.9 | 7.0 | 0.00 | 0.00 | 0.00 | 82 | 1020.8 |
| 20260510171608 | 54 | 77 | 0.9 | 7.8 | 0.00 | 0.00 | 0.00 | 82 | 1020.6 |
| 20260510171055 | 54 | 309 | 2.6 | 7.8 | 0.00 | 0.00 | 0.00 | 82 | 1020.6 |
| 20260510170542 | 54 | 341 | 4.3 | 7.0 | 0.00 | 0.00 | 0.00 | 82 | 1020.4 |
| 20260510170029 | 54 | 294 | 0.0 | 6.1 | 0.00 | 0.00 | 0.00 | 83 | 1020.4 |
| 20260510165003 | 54 | 46 | 0.0 | 7.8 | 0.00 | 0.00 | 0.00 | 84 | 1020.5 |
| 20260510164450 | 54 | 344 | 0.0 | 7.8 | 0.00 | 0.00 | 0.00 | 84 | 1020.5 |
| 20260510163937 | 53 | 296 | 3.5 | 7.0 | 0.00 | 0.00 | 0.00 | 84 | 1020.5 |
| 20260510163424 | 54 | 281 | 0.0 | 7.0 | 0.00 | 0.00 | 0.00 | 84 | 1020.4 |
| 20260510162911 | 53 | 11 | 3.5 | 7.0 | 0.00 | 0.00 | 0.00 | 84 | 1020.4 |
| 20260510162358 | 53 | 309 | 0.0 | 7.8 | 0.00 | 0.00 | 0.00 | 85 | 1020.3 |
| 20260510161332 | 53 | 0 | 1.7 | 7.8 | 0.00 | 0.00 | 0.00 | 85 | 1020.0 |
| 20260510160306 | 53 | 12 | 0.0 | 6.1 | 0.00 | 0.00 | 0.00 | 86 | 1020.0 |
| 20260510155909 | 53 | 91 | 0.0 | 6.1 | 0.00 | 0.00 | 0.00 | 86 | 1020.0 |
| 20260510155752 | 53 | 91 | 0.0 | 6.1 | 0.00 | 0.00 | 0.00 | 86 | 1020.0 |
| 20260510155240 | 53 | 334 | 0.9 | 5.2 | 0.00 | 0.00 | 0.00 | 86 | 1020.0 |
| 20260510154726 | 53 | 280 | 0.0 | 5.2 | 0.00 | 0.00 | 0.00 | 86 | 1019.9 |
| 20260510154214 | 53 | 0 | 0.0 | 5.2 | 0.00 | 0.00 | 0.00 | 86 | 1019.9 |
| 20260510153700 | 53 | 0 | 0.0 | 6.1 | 0.00 | 0.00 | 0.00 | 86 | 1019.8 |
| 20260510153148 | 53 | 347 | 1.7 | 6.1 | 0.00 | 0.00 | 0.00 | 86 | 1019.7 |
| 20260510152634 | 53 | 0 | 0.0 | 6.1 | 0.00 | 0.00 | 0.00 | 87 | 1019.7 |
| 20260510151609 | 53 | 0 | 0.0 | 2.6 | 0.00 | 0.00 | 0.00 | 87 | 1019.7 |
| 20260510151055 | 52 | 99 | 0.0 | 2.6 | 0.00 | 0.00 | 0.00 | 87 | 1019.7 |
| 20260510150542 | 52 | 0 | 0.0 | 0.0 | 0.00 | 0.00 | 0.00 | 87 | 1019.7 |
| 20260510150030 | 52 | 0 | 0.0 | 0.0 | 0.00 | 0.00 | 0.00 | 87 | 1019.7 |
| 20260510145003 | 52 | 0 | 0.0 | 4.3 | 0.00 | 0.00 | 0.00 | 88 | 1019.6 |
| 20260510144450 | 52 | 0 | 0.0 | 4.3 | 0.00 | 0.00 | 0.00 | 88 | 1019.6 |
| 20260510143937 | 52 | 65 | 0.0 | 2.6 | 0.00 | 0.00 | 0.00 | 88 | 1019.6 |
| 20260510143424 | 52 | 0 | 0.0 | 0.0 | 0.00 | 0.00 | 0.00 | 88 | 1019.6 |
| 20260510142911 | 52 | 0 | 0.0 | 0.0 | 0.00 | 0.00 | 0.00 | 88 | 1019.5 |
| 20260510142358 | 51 | 0 | 0.0 | 0.0 | 0.00 | 0.00 | 0.00 | 88 | 1019.4 |
| 20260510141845 | 51 | 0 | 0.0 | 0.0 | 0.00 | 0.00 | 0.00 | 88 | 1019.4 |
| 20260510141332 | 52 | 0 | 0.0 | 0.0 | 0.00 | 0.00 | 0.00 | 88 | 1019.3 |
| 20260510140307 | 51 | 0 | 0.0 | 0.0 | 0.00 | 0.00 | 0.00 | 88 | 1019.3 |
| 20260510135753 | 51 | 0 | 0.0 | 0.0 | 0.00 | 0.00 | 0.00 | 88 | 1019.2 |
| 20260510134727 | 51 | 0 | 0.0 | 0.0 | 0.00 | 0.00 | 0.00 | 88 | 1019.1 |
| 20260510134214 | 51 | 0 | 0.0 | 0.0 | 0.00 | 0.00 | 0.00 | 88 | 1019.0 |
| 20260510133701 | 51 | 0 | 0.0 | 0.0 | 0.00 | 0.00 | 0.00 | 88 | 1019.0 |
| 20260510133148 | 51 | 0 | 0.0 | 0.0 | 0.00 | 0.00 | 0.00 | 88 | 1019.1 |
| 20260510132635 | 51 | 0 | 0.0 | 0.0 | 0.00 | 0.00 | 0.00 | 88 | 1018.9 |
| 20260510132124 | 51 | 0 | 0.0 | 0.0 | 0.00 | 0.00 | 0.00 | 88 | 1018.7 |
| 20260510131609 | 51 | 0 | 0.0 | 0.0 | 0.00 | 0.00 | 0.00 | 88 | 1018.7 |
| 20260510131057 | 51 | 0 | 0.0 | 0.0 | 0.00 | 0.00 | 0.00 | 88 | 1018.7 |
| 20260510130543 | 51 | 0 | 0.0 | 0.0 | 0.00 | 0.00 | 0.00 | 88 | 1018.7 |
| 20260510130031 | 51 | 0 | 0.0 | 0.0 | 0.00 | 0.00 | 0.00 | 88 | 1018.4 |
| 20260510125518 | 51 | 0 | 0.0 | 0.0 | 0.00 | 0.00 | 0.00 | 89 | 1018.4 |
| 20260510125005 | 51 | 0 | 0.0 | 0.0 | 0.00 | 0.00 | 0.00 | 89 | 1018.4 |
| 20260510124451 | 51 | 0 | 0.0 | 0.0 | 0.00 | 0.00 | 0.00 | 89 | 1018.5 |
| 20260510123938 | 51 | 0 | 0.0 | 0.0 | 0.00 | 0.00 | 0.00 | 89 | 1018.6 |
| 20260510123425 | 51 | 0 | 0.0 | 0.0 | 0.00 | 0.00 | 0.00 | 89 | 1018.6 |
| 20260510122912 | 51 | 0 | 0.0 | 0.0 | 0.00 | 0.00 | 0.00 | 89 | 1018.7 |
| 20260510122359 | 51 | 0 | 0.0 | 0.0 | 0.00 | 0.00 | 0.00 | 89 | 1018.5 |
| 20260510121846 | 51 | 0 | 0.0 | 0.0 | 0.00 | 0.00 | 0.00 | 89 | 1018.9 |
| 20260510121333 | 51 | 0 | 0.0 | 0.0 | 0.00 | 0.00 | 0.00 | 89 | 1018.6 |
| 20260510120820 | 51 | 0 | 0.0 | 0.0 | 0.00 | 0.00 | 0.00 | 89 | 1019.0 |
| 20260510120307 | 51 | 0 | 0.0 | 0.0 | 0.00 | 0.00 | 0.00 | 89 | 1018.6 |
| 20260510115754 | 51 | 0 | 0.0 | 0.0 | 0.00 | 0.00 | 0.00 | 89 | 1018.4 |
| 20260510115241 | 51 | 0 | 0.0 | 0.0 | 0.00 | 0.00 | 0.00 | 89 | 1018.6 |
| 20260510114728 | 51 | 0 | 0.0 | 0.0 | 0.00 | 0.00 | 0.00 | 89 | 1018.4 |
| 20260510114215 | 51 | 0 | 0.0 | 0.0 | 0.00 | 0.00 | 0.00 | 89 | 1018.5 |
| 20260510113702 | 51 | 0 | 0.0 | 0.0 | 0.00 | 0.00 | 0.00 | 89 | 1018.8 |
| 20260510113149 | 51 | 0 | 0.0 | 0.0 | 0.00 | 0.00 | 0.00 | 89 | 1019.0 |
| 20260510112636 | 51 | 0 | 0.0 | 0.0 | 0.00 | 0.00 | 0.00 | 89 | 1018.7 |
| 20260510112124 | 51 | 0 | 0.0 | 0.0 | 0.00 | 0.00 | 0.00 | 89 | 1018.9 |
| 20260510111610 | 51 | 0 | 0.0 | 0.0 | 0.00 | 0.00 | 0.00 | 89 | 1018.9 |
| 20260510111057 | 51 | 0 | 0.0 | 0.0 | 0.00 | 0.00 | 0.00 | 90 | 1018.9 |
| 20260510110544 | 51 | 0 | 0.0 | 0.0 | 0.00 | 0.00 | 0.00 | 90 | 1018.9 |
| 20260510110031 | 51 | 0 | 0.0 | 0.0 | 0.00 | 0.00 | 0.00 | 89 | 1018.9 |
| 20260510105518 | 51 | 0 | 0.0 | 4.3 | 0.00 | 0.00 | 0.00 | 89 | 1018.9 |
| 20260510105005 | 51 | 0 | 0.0 | 4.3 | 0.00 | 0.00 | 0.00 | 89 | 1018.9 |
| 20260510104452 | 51 | 0 | 0.0 | 4.3 | 0.00 | 0.00 | 0.00 | 89 | 1018.8 |
| 20260510103939 | 51 | 0 | 0.0 | 0.0 | 0.00 | 0.00 | 0.00 | 89 | 1018.8 |
| 20260510103426 | 51 | 0 | 0.0 | 5.2 | 0.00 | 0.00 | 0.00 | 89 | 1018.9 |
| 20260510102913 | 51 | 0 | 0.0 | 5.2 | 0.00 | 0.00 | 0.00 | 89 | 1018.8 |
| 20260510102400 | 51 | 0 | 0.9 | 5.2 | 0.00 | 0.00 | 0.00 | 89 | 1018.7 |
| 20260510101847 | 51 | 0 | 0.0 | 2.6 | 0.00 | 0.00 | 0.00 | 89 | 1018.8 |
| 20260510101334 | 51 | 0 | 0.0 | 2.6 | 0.00 | 0.00 | 0.00 | 89 | 1018.9 |
| 20260510100821 | 51 | 0 | 0.0 | 0.0 | 0.00 | 0.00 | 0.00 | 89 | 1018.8 |
| 20260510100308 | 51 | 0 | 0.0 | 0.0 | 0.00 | 0.00 | 0.00 | 89 | 1018.7 |
| 20260510095755 | 52 | 0 | 0.0 | 0.0 | 0.00 | 0.00 | 0.00 | 89 | 1018.6 |
| 20260510095242 | 51 | 0 | 0.0 | 0.0 | 0.00 | 0.00 | 0.00 | 89 | 1018.5 |
| 20260510094729 | 51 | 42 | 0.0 | 3.5 | 0.00 | 0.00 | 0.00 | 89 | 1018.4 |
| 20260510094216 | 51 | 0 | 0.0 | 3.5 | 0.00 | 0.00 | 0.00 | 89 | 1018.4 |
| 20260510093703 | 51 | 63 | 0.0 | 3.5 | 0.00 | 0.00 | 0.00 | 89 | 1018.5 |
| 20260510093150 | 51 | 0 | 0.0 | 0.0 | 0.00 | 0.00 | 0.00 | 89 | 1018.5 |
| 20260510092637 | 51 | 0 | 0.0 | 0.0 | 0.00 | 0.00 | 0.00 | 89 | 1018.8 |
| 20260510092124 | 51 | 0 | 0.0 | 0.9 | 0.00 | 0.00 | 0.00 | 89 | 1018.7 |
| 20260510091612 | 52 | 0 | 0.0 | 0.9 | 0.00 | 0.00 | 0.00 | 88 | 1018.7 |
| 20260510091058 | 52 | 0 | 0.0 | 0.9 | 0.00 | 0.00 | 0.00 | 88 | 1018.6 |
| 20260510090545 | 51 | 0 | 0.0 | 7.8 | 0.00 | 0.00 | 0.00 | 88 | 1018.6 |
| 20260510090032 | 52 | 0 | 0.0 | 7.8 | 0.00 | 0.00 | 0.00 | 88 | 1018.5 |
| 20260510085519 | 52 | 65 | 0.9 | 7.8 | 0.00 | 0.00 | 0.00 | 88 | 1018.5 |
| 20260510085006 | 52 | 0 | 0.0 | 0.0 | 0.00 | 0.00 | 0.00 | 88 | 1018.4 |
| 20260510084453 | 52 | 0 | 0.0 | 4.3 | 0.00 | 0.00 | 0.00 | 88 | 1018.5 |
| 20260510083940 | 52 | 79 | 0.0 | 4.3 | 0.00 | 0.00 | 0.00 | 88 | 1018.5 |
| 20260510083427 | 52 | 9 | 0.9 | 4.3 | 0.00 | 0.00 | 0.00 | 88 | 1018.4 |
| 20260510082914 | 52 | 0 | 0.0 | 2.6 | 0.00 | 0.00 | 0.00 | 88 | 1018.4 |
| 20260510082401 | 52 | 9 | 0.0 | 5.2 | 0.00 | 0.00 | 0.00 | 88 | 1018.1 |
| 20260510081848 | 52 | 46 | 0.0 | 5.2 | 0.00 | 0.00 | 0.00 | 88 | 1018.1 |
| 20260510081335 | 52 | 0 | 0.0 | 5.2 | 0.00 | 0.00 | 0.00 | 88 | 1018.2 |
| 20260510080822 | 52 | 0 | 0.0 | 4.3 | 0.00 | 0.00 | 0.00 | 88 | 1018.4 |
| 20260510080309 | 52 | 0 | 0.0 | 4.3 | 0.00 | 0.00 | 0.00 | 88 | 1018.3 |
| 20260510075756 | 52 | 329 | 0.0 | 1.7 | 0.00 | 0.00 | 0.00 | 88 | 1018.2 |
| 20260510075243 | 52 | 0 | 0.0 | 0.0 | 0.00 | 0.00 | 0.00 | 88 | 1018.2 |
| 20260510074730 | 52 | 338 | 0.0 | 5.2 | 0.00 | 0.00 | 0.00 | 88 | 1018.3 |
| 20260510073704 | 52 | 305 | 0.0 | 5.2 | 0.00 | 0.00 | 0.00 | 88 | 1018.5 |
| 20260510073151 | 52 | 0 | 0.0 | 4.3 | 0.00 | 0.00 | 0.00 | 88 | 1018.4 |
| 20260510072125 | 52 | 0 | 0.0 | 0.0 | 0.00 | 0.00 | 0.00 | 88 | 1018.1 |
| 20260510071612 | 52 | 96 | 1.7 | 7.8 | 0.00 | 0.00 | 0.00 | 88 | 1018.1 |
| 20260510071059 | 52 | 0 | 0.0 | 7.8 | 0.00 | 0.00 | 0.00 | 88 | 1018.1 |
| 20260510070546 | 52 | 77 | 1.7 | 7.8 | 0.00 | 0.00 | 0.00 | 88 | 1018.1 |
| 20260510070033 | 52 | 18 | 0.9 | 5.2 | 0.00 | 0.00 | 0.00 | 88 | 1018.2 |
| 20260510065520 | 52 | 0 | 0.0 | 5.2 | 0.00 | 0.00 | 0.00 | 88 | 1018.2 |
| 20260510065007 | 52 | 0 | 0.0 | 0.0 | 0.00 | 0.00 | 0.00 | 88 | 1018.2 |
| 20260510064454 | 52 | 0 | 0.0 | 6.1 | 0.00 | 0.00 | 0.00 | 88 | 1018.1 |
| 20260510063941 | 52 | 0 | 0.0 | 6.1 | 0.00 | 0.00 | 0.00 | 88 | 1018.2 |
| 20260510063429 | 52 | 0 | 0.0 | 5.2 | 0.00 | 0.00 | 0.00 | 88 | 1018.2 |
| 20260510062915 | 52 | 0 | 0.0 | 5.2 | 0.00 | 0.00 | 0.00 | 88 | 1018.2 |
| 20260510062402 | 52 | 0 | 0.0 | 3.5 | 0.00 | 0.00 | 0.00 | 88 | 1018.3 |
| 20260510061849 | 52 | 0 | 0.0 | 5.2 | 0.00 | 0.00 | 0.00 | 88 | 1018.3 |
| 20260510061336 | 52 | 0 | 0.0 | 5.2 | 0.00 | 0.00 | 0.00 | 88 | 1018.3 |
| 20260510060823 | 52 | 0 | 0.0 | 5.2 | 0.00 | 0.00 | 0.00 | 88 | 1018.3 |
| 20260510060310 | 52 | 0 | 0.0 | 7.0 | 0.00 | 0.00 | 0.00 | 88 | 1018.3 |
| 20260510055757 | 52 | 0 | 0.0 | 7.0 | 0.00 | 0.00 | 0.00 | 88 | 1018.3 |
| 20260510055244 | 52 | 105 | 0.0 | 7.0 | 0.00 | 0.00 | 0.00 | 88 | 1018.3 |
| 20260510054731 | 52 | 58 | 0.0 | 5.2 | 0.00 | 0.00 | 0.00 | 88 | 1018.3 |
| 20260510054218 | 52 | 44 | 0.0 | 4.3 | 0.00 | 0.00 | 0.00 | 88 | 1018.3 |
| 20260510053705 | 53 | 0 | 0.0 | 0.0 | 0.00 | 0.00 | 0.00 | 88 | 1018.3 |
| 20260510053152 | 52 | 340 | 0.9 | 6.1 | 0.00 | 0.00 | 0.00 | 88 | 1018.3 |
| 20260510052639 | 53 | 0 | 0.0 | 6.1 | 0.00 | 0.00 | 0.00 | 88 | 1018.3 |
| 20260510052126 | 53 | 121 | 1.7 | 6.1 | 0.00 | 0.00 | 0.00 | 88 | 1018.3 |
| 20260510051613 | 53 | 63 | 0.0 | 7.0 | 0.00 | 0.00 | 0.00 | 88 | 1018.3 |
| 20260510051100 | 52 | 0 | 0.0 | 7.0 | 0.00 | 0.00 | 0.00 | 88 | 1018.2 |
| 20260510050547 | 53 | 29 | 1.7 | 7.0 | 0.00 | 0.00 | 0.00 | 88 | 1018.2 |
| 20260510050034 | 53 | 0 | 0.0 | 5.2 | 0.00 | 0.00 | 0.00 | 87 | 1018.2 |
| 20260510045521 | 52 | 63 | 0.0 | 5.2 | 0.00 | 0.00 | 0.00 | 87 | 1018.1 |
| 20260510045008 | 53 | 0 | 0.0 | 0.0 | 0.00 | 0.00 | 0.00 | 87 | 1018.1 |
| 20260510044455 | 53 | 0 | 0.0 | 7.8 | 0.00 | 0.00 | 0.00 | 87 | 1018.0 |
| 20260510043942 | 53 | 68 | 1.7 | 7.8 | 0.00 | 0.00 | 0.00 | 87 | 1017.9 |
| 20260510043429 | 53 | 117 | 3.5 | 7.8 | 0.00 | 0.00 | 0.00 | 87 | 1017.8 |
| 20260510042916 | 53 | 110 | 1.7 | 7.0 | 0.00 | 0.00 | 0.00 | 87 | 1017.7 |
| 20260510042403 | 53 | 208 | 0.0 | 7.0 | 0.00 | 0.00 | 0.00 | 87 | 1017.6 |
| 20260510041850 | 53 | 26 | 2.6 | 7.0 | 0.00 | 0.00 | 0.00 | 87 | 1017.5 |
| 20260510041337 | 53 | 0 | 0.0 | 0.0 | 0.00 | 0.00 | 0.00 | 87 | 1017.6 |
| 20260510040824 | 53 | 0 | 0.0 | 8.7 | 0.00 | 0.00 | 0.00 | 87 | 1017.5 |
| 20260510040311 | 53 | 0 | 0.9 | 8.7 | 0.00 | 0.00 | 0.00 | 87 | 1017.6 |
| 20260510035758 | 53 | 46 | 0.0 | 4.3 | 0.00 | 0.00 | 0.00 | 87 | 1017.5 |
| 20260510035245 | 53 | 0 | 0.0 | 6.1 | 0.00 | 0.00 | 0.00 | 86 | 1017.5 |
| 20260510034732 | 53 | 326 | 0.0 | 6.1 | 0.00 | 0.00 | 0.00 | 86 | 1017.3 |
| 20260510034219 | 53 | 37 | 0.0 | 6.1 | 0.00 | 0.00 | 0.00 | 86 | 1017.2 |
| 20260510033706 | 53 | 298 | 0.0 | 6.1 | 0.00 | 0.00 | 0.00 | 86 | 1017.2 |
| 20260510033153 | 53 | 0 | 0.0 | 0.0 | 0.00 | 0.00 | 0.00 | 86 | 1017.1 |
| 20260510032642 | 53 | 63 | 2.6 | 7.0 | 0.00 | 0.00 | 0.00 | 86 | 1017.0 |
| 20260510032127 | 53 | 51 | 0.0 | 7.0 | 0.00 | 0.00 | 0.00 | 85 | 1016.9 |
| 20260510031614 | 53 | 79 | 3.5 | 7.0 | 0.00 | 0.00 | 0.00 | 85 | 1016.8 |
| 20260510031101 | 54 | 0 | 0.0 | 7.0 | 0.00 | 0.00 | 0.00 | 85 | 1016.8 |
| 20260510030547 | 54 | 110 | 4.3 | 7.0 | 0.00 | 0.00 | 0.00 | 85 | 1016.7 |
| 20260510030035 | 54 | 61 | 0.0 | 7.0 | 0.00 | 0.00 | 0.00 | 85 | 1016.6 |
| 20260510025522 | 54 | 112 | 0.0 | 4.3 | 0.00 | 0.00 | 0.00 | 85 | 1016.6 |
| 20260510025009 | 54 | 95 | 0.9 | 4.3 | 0.00 | 0.00 | 0.00 | 85 | 1016.5 |
| 20260510024455 | 54 | 0 | 0.0 | 7.0 | 0.00 | 0.00 | 0.00 | 84 | 1016.5 |
| 20260510023943 | 54 | 46 | 0.0 | 7.0 | 0.00 | 0.00 | 0.00 | 84 | 1016.5 |
| 20260510023429 | 54 | 79 | 0.9 | 7.0 | 0.00 | 0.00 | 0.00 | 84 | 1016.4 |
| 20260510022916 | 54 | 309 | 0.9 | 7.0 | 0.00 | 0.00 | 0.00 | 84 | 1016.5 |
| 20260510022403 | 54 | 0 | 1.7 | 5.2 | 0.00 | 0.00 | 0.00 | 83 | 1016.5 |
| 20260510021851 | 54 | 0 | 0.0 | 11.3 | 0.00 | 0.00 | 0.00 | 83 | 1016.5 |
| 20260510021337 | 54 | 50 | 0.9 | 11.3 | 0.00 | 0.00 | 0.00 | 83 | 1016.5 |
| 20260510020824 | 54 | 82 | 5.2 | 11.3 | 0.00 | 0.00 | 0.00 | 83 | 1016.6 |
| 20260510020311 | 55 | 0 | 3.5 | 7.8 | 0.00 | 0.00 | 0.00 | 83 | 1016.5 |
| 20260510015758 | 54 | 345 | 2.6 | 9.6 | 0.00 | 0.00 | 0.00 | 83 | 1016.5 |
| 20260510015245 | 55 | 84 | 0.9 | 9.6 | 0.00 | 0.00 | 0.00 | 83 | 1016.6 |
| 20260510014733 | 54 | 85 | 3.5 | 9.6 | 0.00 | 0.00 | 0.00 | 82 | 1016.7 |
| 20260510014219 | 55 | 326 | 0.0 | 7.0 | 0.00 | 0.00 | 0.00 | 83 | 1016.7 |
| 20260510013153 | 55 | 60 | 2.6 | 9.6 | 0.00 | 0.00 | 0.00 | 82 | 1016.9 |
| 20260510012643 | 55 | 70 | 2.6 | 9.6 | 0.00 | 0.00 | 0.00 | 82 | 1016.9 |
| 20260510012127 | 55 | 22 | 0.0 | 9.6 | 0.00 | 0.00 | 0.00 | 82 | 1016.9 |
| 20260510011614 | 55 | 64 | 3.5 | 9.6 | 0.00 | 0.00 | 0.00 | 81 | 1017.1 |
| 20260510011101 | 55 | 71 | 1.7 | 9.6 | 0.00 | 0.00 | 0.00 | 81 | 1017.0 |
| 20260510010548 | 56 | 63 | 3.5 | 6.1 | 0.00 | 0.00 | 0.00 | 81 | 1017.0 |
| 20260510010035 | 55 | 36 | 3.5 | 9.6 | 0.00 | 0.00 | 0.00 | 81 | 1016.8 |
| 20260510005011 | 55 | 68 | 5.2 | 9.6 | 0.00 | 0.00 | 0.00 | 81 | 1016.8 |
| 20260510004456 | 56 | 113 | 0.9 | 7.8 | 0.00 | 0.00 | 0.00 | 81 | 1016.7 |
| 20260510003943 | 56 | 57 | 3.5 | 9.6 | 0.00 | 0.00 | 0.00 | 81 | 1016.7 |
| 20260510003430 | 56 | 267 | 2.6 | 9.6 | 0.00 | 0.00 | 0.00 | 81 | 1016.7 |
| 20260510002404 | 57 | 0 | 3.5 | 10.4 | 0.00 | 0.00 | 0.00 | 80 | 1016.6 |
| 20260510001851 | 56 | 316 | 2.6 | 10.4 | 0.00 | 0.00 | 0.00 | 80 | 1016.6 |
| 20260510001338 | 56 | 133 | 5.2 | 10.4 | 0.00 | 0.00 | 0.00 | 79 | 1016.5 |
| 20260510000825 | 56 | 9 | 3.5 | 7.8 | 0.00 | 0.00 | 0.00 | 80 | 1016.6 |
| 20260510000312 | 57 | 37 | 2.6 | 13.0 | 0.00 | 0.00 | 0.00 | 80 | 1016.6 |
| 20260509235759 | 56 | 85 | 2.6 | 13.0 | 0.00 | 0.00 | 0.00 | 80 | 1016.7 |
| 20260509235246 | 56 | 78 | 3.5 | 13.0 | 0.00 | 0.00 | 0.00 | 80 | 1016.7 |
| 20260509234733 | 56 | 91 | 1.7 | 9.6 | 0.00 | 0.00 | 0.00 | 80 | 1016.8 |
| 20260509233707 | 56 | 299 | 3.5 | 7.8 | 0.00 | 0.00 | 0.00 | 80 | 1016.9 |
| 20260509232643 | 56 | 100 | 4.3 | 10.4 | 0.00 | 0.00 | 0.00 | 80 | 1016.9 |
| 20260509232128 | 56 | 126 | 5.2 | 10.4 | 0.00 | 0.00 | 0.00 | 80 | 1017.0 |
| 20260509231615 | 56 | 309 | 3.5 | 10.4 | 0.00 | 0.00 | 0.00 | 79 | 1017.0 |
| 20260509230549 | 57 | 295 | 1.7 | 10.4 | 0.00 | 0.00 | 0.00 | 80 | 1017.0 |
| 20260509230036 | 57 | 71 | 5.2 | 10.4 | 0.00 | 0.00 | 0.00 | 78 | 1017.0 |
| 20260509225523 | 57 | 71 | 3.5 | 7.0 | 0.00 | 0.00 | 0.00 | 78 | 1017.1 |
| 20260509225010 | 57 | 299 | 4.3 | 7.0 | 0.00 | 0.00 | 0.00 | 78 | 1017.1 |
| 20260509224457 | 58 | 291 | 3.5 | 8.7 | 0.00 | 0.00 | 0.00 | 78 | 1017.0 |
| 20260509223944 | 58 | 330 | 1.7 | 8.7 | 0.00 | 0.00 | 0.00 | 78 | 1017.0 |
| 20260509223431 | 58 | 344 | 3.5 | 8.7 | 0.00 | 0.00 | 0.00 | 78 | 1016.9 |
| 20260509222918 | 58 | 145 | 3.5 | 7.8 | 0.00 | 0.00 | 0.00 | 78 | 1017.0 |
| 20260509222405 | 57 | 0 | 5.2 | 7.8 | 0.00 | 0.00 | 0.00 | 78 | 1016.9 |
| 20260509221852 | 58 | 2 | 5.2 | 8.7 | 0.00 | 0.00 | 0.00 | 78 | 1017.0 |
| 20260509221339 | 58 | 12 | 3.5 | 8.7 | 0.00 | 0.00 | 0.00 | 78 | 1017.0 |
| 20260509220826 | 58 | 299 | 3.5 | 8.7 | 0.00 | 0.00 | 0.00 | 78 | 1017.1 |
| 20260509220313 | 58 | 0 | 2.6 | 12.2 | 0.00 | 0.00 | 0.00 | 79 | 1017.2 |
| 20260509215800 | 58 | 7 | 3.5 | 12.2 | 0.00 | 0.00 | 0.00 | 79 | 1017.3 |
| 20260509215247 | 58 | 308 | 5.2 | 12.2 | 0.00 | 0.00 | 0.00 | 79 | 1017.4 |
| 20260509214734 | 58 | 89 | 3.5 | 10.4 | 0.00 | 0.00 | 0.00 | 79 | 1017.6 |
| 20260509214221 | 58 | 109 | 5.2 | 10.4 | 0.00 | 0.00 | 0.00 | 78 | 1017.6 |
| 20260509213709 | 59 | 338 | 5.2 | 8.7 | 0.00 | 0.00 | 0.00 | 78 | 1017.6 |
| 20260509213155 | 59 | 357 | 4.3 | 7.8 | 0.00 | 0.00 | 0.00 | 78 | 1017.6 |
| 20260509212643 | 58 | 46 | 3.5 | 7.8 | 0.00 | 0.00 | 0.00 | 79 | 1017.6 |
| 20260509212129 | 58 | 99 | 5.2 | 7.8 | 0.00 | 0.00 | 0.00 | 79 | 1017.7 |
| 20260509211616 | 58 | 336 | 2.6 | 7.8 | 0.00 | 0.00 | 0.00 | 80 | 1017.7 |
| 20260509210550 | 58 | 78 | 0.9 | 11.3 | 0.00 | 0.00 | 0.00 | 80 | 1018.0 |
| 20260509210037 | 57 | 54 | 2.6 | 11.3 | 0.00 | 0.00 | 0.00 | 81 | 1018.0 |
| 20260509205524 | 57 | 68 | 5.2 | 11.3 | 0.00 | 0.00 | 0.00 | 81 | 1018.0 |
| 20260509204458 | 56 | 114 | 4.3 | 9.6 | 0.00 | 0.00 | 0.00 | 82 | 1018.2 |
| 20260509203945 | 55 | 15 | 1.7 | 16.5 | 0.00 | 0.00 | 0.00 | 83 | 1018.2 |
| 20260509203432 | 55 | 75 | 2.6 | 16.5 | 0.00 | 0.00 | 0.00 | 83 | 1018.3 |
| 20260509202919 | 55 | 100 | 7.8 | 16.5 | 0.00 | 0.00 | 0.00 | 82 | 1018.4 |
| 20260509202406 | 55 | 310 | 3.5 | 12.2 | 0.00 | 0.00 | 0.00 | 82 | 1018.3 |
| 20260509201853 | 56 | 345 | 5.2 | 10.4 | 0.00 | 0.00 | 0.00 | 82 | 1018.3 |
| 20260509201340 | 56 | 57 | 4.3 | 10.4 | 0.00 | 0.00 | 0.00 | 82 | 1018.3 |
| 20260509200827 | 55 | 29 | 6.1 | 10.4 | 0.00 | 0.00 | 0.00 | 82 | 1018.4 |
| 20260509195801 | 55 | 77 | 4.3 | 10.4 | 0.00 | 0.00 | 0.00 | 83 | 1018.5 |
| 20260509195248 | 55 | 96 | 5.2 | 10.4 | 0.00 | 0.00 | 0.00 | 82 | 1018.5 |
| 20260509194735 | 56 | 21 | 5.2 | 10.4 | 0.00 | 0.00 | 0.00 | 82 | 1018.5 |
| 20260509194222 | 56 | 105 | 4.3 | 10.4 | 0.00 | 0.00 | 0.00 | 82 | 1018.5 |
| 20260509193709 | 56 | 60 | 1.7 | 10.4 | 0.00 | 0.00 | 0.00 | 83 | 1018.5 |
| 20260509193156 | 57 | 308 | 4.3 | 8.7 | 0.00 | 0.00 | 0.00 | 83 | 1018.5 |
| 20260509192643 | 56 | 323 | 1.7 | 7.8 | 0.00 | 0.00 | 0.00 | 84 | 1018.6 |